Other Public Products
Issued by NWS Grand Forks, ND

Home | Current Version | Previous Version | Text Only | Print | Product List | Glossary Off
Versions: 1 2 3 4 5 6 7 8 9 10 11 12 13 14 15 16 17 18 19 20 21 22 23 24 25 26 27 28 29 30 31 32 33 34 35 36 37 38 39 40 41 42 43 44 45 46 47 48 49 50

000
FPUS83 KFGF 271331
OPUFGF
PRAIRIE TO PINES WEATHER ROUNDUP
NATIONAL WEATHER SERVICE EASTERN NORTH DAKOTA/GRAND FORKS ND
700 AM CST THU NOV 27 2014

 **SATELLITE DATA USED TO AUGMENT SKY COVER AT AUTOMATED STATIONS**
 *****  WEATHER ACROSS EASTERN NORTH DAKOTA  *****

CITY           SKY/WX    TMP DP  RH WIND       PRES   REMARKS
GRAND FORKS    PTCLDY   -16 -20  82 S6        30.51S WCI -31
GRAND FORKS AF PTCLDY   -14 -19  76 SW5       30.50S WCI -26
GRAND CITY NWS   N/A    -11 N/A N/A SW5         N/A  WCI -23
BUXTON           N/A    -12 -14  89 S5          N/A  WCI -24
DEVILS LAKE    PTCLDY    -6 -17  59 S6        30.36S WCI -18
FARGO          MOCLDY   -12 -18  74 CALM      30.53F
WAHPETON ARPT  PTSUNNY  -13 -18  77 CALM      30.53F
$$

 *****  WEATHER ACROSS CENTRAL AND WESTERN NORTH DAKOTA  *****

CITY           SKY/WX    TMP DP  RH WIND       PRES   REMARKS
JAMESTOWN      CLOUDY   -22 -29  70 S6        30.42F WCI -38
BISMARCK       MOCLDY    -7 -12  79 E7        30.35F WCI -21
MINOT          CLOUDY    -6 -11  79 CALM      30.28F
MINOT AFB      CLOUDY    -6 -10  83 SE3       30.28F
GARRISON         N/A      9   5  84 S15       30.28F WCI  -8
WILLISTON      CLOUDY    11   6  81 CALM      30.19F
DICKINSON      CLOUDY    14  11  87 S13       30.14F WCI   0
HETTINGER      CLOUDY    12  10  92 SE12      30.18F WCI  -2
$$

 *****  OTHER OBSERVATIONS NORTHEAST NORTH DAKOTA  *****

CITY           SKY/WX    TMP DP  RH WIND       PRES   REMARKS
WALHALLA         N/A    -17 -20  83 S3        30.45F
LANGDON        FAIR     -11 -17  77 SW9       30.36S WCI -29
CAVALIER       FAIR     -11 -17  77 S6        30.47F WCI -25
GRAFTON        FAIR     -15 -20  76 S6        30.49F WCI -29
CANDO          FAIR     -15 -20  76 SW3       30.38F
FORT TOTTEN      N/A    -12 -18  74 SE3       29.95
ROLLA          PTSUNNY   -8 -11  84 SW10      30.31F WCI -26
RUGBY          FAIR     N/A N/A N/A SE8       30.33F
 ***** THE ABOVE OBSERVATIONS ARE NON NWS ARE NOT QUALITY
        CONTROLLED AND MAY MIS-REPORT RAIN FOR SNOW...
$$

 *****  OTHER OBSERVATIONS SOUTHEAST NORTH DAKOTA *****

CITY           SKY/WX    TMP DP  RH WIND       PRES   REMARKS
COOPERSTOWN    NOT AVBL
VALLEY CITY    FAIR     -18 -24  76 S6        30.44F WCI -33
OAKES            N/A    -18 -22  83 CALM      30.47S
GWINNER        SUNNY    -15 -22  70 SW6       30.49S WCI -29
BUFFALO        NOT AVBL
WYNDMERE         N/A    -17 -20  83 SW2         N/A
 ***** THE ABOVE OBSERVATIONS ARE NON NWS ARE NOT QUALITY
       CONTROLLED AND MAY MIS-REPORT RAIN FOR SNOW...
$$

  *****  WEATHER ACROSS NORTHERN MINNESOTA  *****

CITY           SKY/WX    TMP DP  RH WIND       PRES   REMARKS
FLAG ISLAND    PTCLDY   -17 -22  76 CALM      30.43F
WARROAD        MOCLDY   -17 -22  76 S5        30.45S WCI -29
ROSEAU         MOCLDY   -17 -24  70 S5        30.46S WCI -29
HALLOCK        MOCLDY   -15 -20  76 SE6       30.48F WCI -29
THF RVR FALLS  PTCLDY   -15 -17  91 CALM      30.46F
HALSTAD          N/A    -16 -20  81 S3          N/A
FOSSTON        PTCLDY   -20 -27  69 CALM      30.47R
BAUDETTE       MOCLDY   -17 -22  78 S3        30.44F
WASKISH          N/A    -17 -20  83 CALM      30.45F
CROOKSTON      PTCLDY   -15 -20  76 S5        30.53S WCI -27
$$
  *****  WEATHER ACROSS CENTRAL AND WEST MINNESOTA  *****

CITY           SKY/WX    TMP DP  RH WIND       PRES   REMARKS
BEMIDJI        MOCLDY   -19 -25  75 CALM      30.44S
PARK RAPIDS    MOCLDY   -16 -21  78 W3        30.43S
WADENA         MOCLDY   -11 -17  77 CALM      30.45S
DETROIT LAKES  MOCLDY   -11 -15  84 CALM      30.47S
MOORHEAD       MOCLDY   -11 -15  84 CALM      30.53S
FERGUS FALLS   PTCLDY   -13 -18  77 CALM      30.55S
ELBOW LAKE     FAIR     -12 -16  83 W3        30.49F FOG
MORRIS MN      MOCLDY   -11 -17  77 NW5       30.49F WCI -23
STAPLES        MOCLDY   -11 -15  84 CALM      30.46S
WHEATON        MOCLDY    -9 -15  77 CALM      30.54F
$$
  *****  WEATHER ELSEWHERE ACROSS MINNESOTA  *****

CITY           SKY/WX    TMP DP  RH WIND       PRES   REMARKS
DULUTH         PTCLDY    -9 -15  75 N8        30.39R WCI -25
INTRNTL FALLS  MOCLDY   -19 -25  73 W3        30.45S
ELY            PTCLDY   -20 -26  76 CALM      30.40R
CLOQUET        PTCLDY    -9 -15  77 NW7       30.41F WCI -24
BRAINERD       PTCLDY    -9 -12  87 W5        30.47R WCI -20
HIBBING        MOCLDY   -15 -22  70 CALM      30.42S
ALEXANDRIA     PTCLDY    -8 -12  83 W7        30.47S WCI -23
SAINT CLOUD    PTCLDY    -5 -11  75 NW6       30.49S WCI -18
MINNEAPOLIS    PTCLDY    -2  -7  79 NW7       30.50R WCI -15
$$

  *****  WEATHER ACROSS SOUTH DAKOTA  *****

CITY           SKY/WX    TMP DP  RH WIND       PRES   REMARKS
SIOUX FALLS    PTCLDY    -5 -10  79 CALM      30.47F
BROOKINGS      NOT AVBL
WATERTOWN      PTCLDY   -13 -16  86 CALM      30.42F
HURON          PTCLDY    -6 -10  83 E5        30.46F WCI -17
SISSETON         N/A    -14 -19  79 CALM      30.50F
ABERDEEN       MOCLDY   -13 -18  78 CALM      30.46F
MITCHELL       MOCLDY     0  -6  76 E7        30.47F WCI -13
PIERRE         CLOUDY    11   8  88 SE15      30.34F WCI  -5
MOBRIDGE       CLOUDY     2  -4  76 SE10      30.32F WCI -14
RAPID CITY     CLOUDY    19  17  92 SE12      30.13F WCI   7
$$

  *****  SOME WEATHER IN NEARBY STATES *****

CITY           SKY/WX    TMP DP  RH WIND       PRES   REMARKS
GLASGOW MT     LGT SNOW  21  18  88 E22       29.97F FOG     WCI   5
GREAT FALLS MT PTCLDY    39  31  72 SW13      29.82F
CHEYENNE WY    PTCLDY    44  19  36 W20       30.16F
SCOTTSBLUFF NE CLOUDY    12  10  92 VRB3      30.15F
OMAHA NE       PTCLDY    16  11  80 N8        30.52R WCI   5
DES MOINES IA  PTCLDY     6  -2  69 NW10      30.51R WCI  -9
DAVENPORT IA   CLOUDY    22  17  81 NW16      30.38R WCI   8
CHICAGO IL     CLOUDY    24  19  81 NW10      30.27R WCI  14
EAU CLAIRE WI  CLEAR      0  -6  76 VRB3      30.43R
LA CROSSE WI   CLEAR     10   2  69 N14       30.43R WCI  -6
$$

  *****  SOME NATIONAL WEATHER *****

CITY           SKY/WX    TMP DP  RH WIND       PRES   REMARKS
LA GUARDIA NY  CLOUDY    37  31  78 N8        29.97R
RALEIGH NC     LGT RAIN  43  39  87 S3        30.02S FOG
ATLANTA GA     MOCLDY    40  30  67 W9        30.20R
NEW ORLEANS LA CLEAR     51  39  63 N9        30.40R
OKLAHOMA CITY  PTCLDY    31  22  69 NE5       30.51R
ALBUQUERQUE NM PTCLDY    36  22  56 NW5       30.45R
SALT LAKE CITY MOCLDY    46  26  45 SE16      30.28F
LOS ANGELES CA CLEAR     63  21  20 E5        30.08F
BOISE ID       CLOUDY    43  38  82 CALM      30.15R
SEATTLE WA     CLOUDY    53  47  79 S9        29.86S
$$

*** WEATHER ACROSS MANITOBA...SASKATCHEWAN AND ONTARIO ***
                ***ONTARIO***

CITY           SKY/WX    TMP DP  RH WIND       PRES   REMARKS
GERALDTON      CLEAR    -24 -31  69 W2        30.32S
THUNDER BAY    CLEAR    -11 -17  77 W8        30.45R WCI -28
SIOUX LOOKOUT  CLEAR    -18 -24  76 CALM      30.39
TORONTO        FLURRIES  30  25  80 SW6       30.06R WCI  24
BIG TROUT LK   CLEAR    -20 -26  76 SW5       30.30F WCI -33
PICKLE LAKE    PTCLDY   -20 -27  69 W7        30.33R WCI -37
DRYDEN         NOT AVBL
KENORA         CLEAR    -15 -18  84 W5        30.40F WCI -27
$$
                *** MANITOBA***

CITY           SKY/WX    TMP DP  RH WIND       PRES   REMARKS
BRANDON        PTCLDY   -18 -24  76 W2        30.35F
DAUPHIN        CLEAR    -11 -17  77 W6        30.33F WCI -25
ISLAND LAKE    CLEAR    -15 -20  76 SW7       30.31F WCI -31
PILOT MOUND      N/A    -15 -18  84 S8          N/A  WCI -32
THE PAS        CLEAR    -15 -18  84 S3        30.22F
THOMPSON       FLURRIES -13 -18  77 SW7       30.17F WCI -29
WINNIPEG       CRYSTALS -13 -20  70 S9        30.47F WCI -31
LYNN LAKE      FLURRIES   0  -4  85 W6        30.11S WCI -12
CHURCHILL      LGT SNOW  -2  -8  78 NW20G26   30.06S DRFTSNOWWCI -25
GILLAM         PTCLDY   -15 -20  76 SW6       30.15F WCI -29
$$
                ***SASKATCHEWAN***

CITY           SKY/WX    TMP DP  RH WIND       PRES   REMARKS
ESTEVAN        FLURRIES   1  -2  85 E7        30.20F WCI -11
KINDERSLEY     FLURRIES  18  14  86 E13       29.95F WCI   4
LLOYDMINSTER   LGT SNOW  12  10  92 E13       30.01F WCI  -3
PRINCE ALBERT  FLURRIES   0  -4  85 E5        30.14F WCI -10
REGINA         CLOUDY     9   5  85 SE14      30.13F WCI  -8
YORKTON        CLOUDY    -4  -8  84 S8        30.19F WCI -19



USA.gov is the U.S. government's official web portal to all federal, state and local government web resources and services.